Havre, MT

11:40 PM MST on November 24, 2017 (GMT -0700)
Havre City-County

Weather History for KHVR - August, 2013

Change the Weather History Date:

Sunday, August 18, 2013

  Actual Average Record
Temperature  
Mean Temperature 74 °F 68 °F  
Max Temperature 90 °F 84 °F 105 °F (2001)
Min Temperature 58 °F 52 °F 38 °F (1895)
Degree Days  
Heating Degree Days 0 2  
Month to date heating degree days 8 17  
Since 1 June heating degree days 129 180  
Since 1 July heating degree days 16 47  
Cooling Degree Days 9 4  
Month to date cooling degree days 80 108  
Year to date cooling degree days 276 329  
Since 1 June cooling degree days 269 318  
Growing Degree Days 25 (Base 50)    
Moisture  
Dew Point 45 °F    
Average Humidity 43    
Maximum Humidity 69    
Minimum Humidity 16    
Precipitation  
Precipitation 0.00 in 0.03 in 1.18 in (1926)
Month to date precipitation 0.93 0.63  
Year to date precipitation 14.89 8.19  
Snow  
Snow 0.00 in 0.00 in 0.00 in (1999)
Month to date snowfall 0.0 0.0  
Since 1 June snowfall 0.0 0.0  
Since 1 July snowfall 0.0 0.0  
Snow Depth 0.00 in    
Sea Level Pressure  
Sea Level Pressure 29.86 in    
Wind  
Wind Speed 10 mph (WSW)    
Max Wind Speed 23 mph    
Max Gust Speed 30 mph    
Visibility 10 miles    
Events      
T = Trace of Precipitation, MM = Missing Value Source: NWS Daily Summary

Daily Weather History Graph

Daily Weather History Graph

Search for Another Location

Airport or City:

Trip Planner

Search our weather history database for the weather conditions in past years. The results will help you decide how hot, cold, wet, or windy it might be!

Date:

Astronomy

Aug. 18, 2013 Rise Set
Actual Time 6:17 AM MDT 8:27 PM MDT
Civil Twilight 5:42 AM MDT 9:01 PM MDT
Nautical Twilight 5:00 AM MDT 9:43 PM MDT
Astronomical Twilight 4:12 AM MDT 10:31 PM MDT
Moon 6:40 PM MDT (8/18) 3:23 AM MDT (8/18)
Length of Visible Light 15h 18m
Length of Day
14h 10m
Waxing Gibbous, 92% of the Moon is Illuminated
Aug 18
Waxing Gibbous
Aug 20
Full
Aug 28
Last Quarter
Sep 5
New
Sep 12
First Quarter

Hourly Weather History & Observations

Time (MDT) Temp. Dew Point Humidity Pressure Visibility Wind Dir Wind Speed Gust Speed Precip Events Conditions
12:53 AM 63.0 °F 48.9 °F 60% 29.87 in 10.0 mi South 6.9 mph - N/A   Clear
1:53 AM 62.1 °F 48.9 °F 62% 29.87 in 10.0 mi West 4.6 mph - N/A   Clear
2:53 AM 63.0 °F 48.0 °F 58% 29.86 in 10.0 mi SW 8.1 mph - N/A   Clear
3:53 AM 64.0 °F 48.9 °F 58% 29.86 in 10.0 mi SW 6.9 mph - N/A   Clear
4:53 AM 64.9 °F 48.9 °F 56% 29.90 in 10.0 mi SW 10.4 mph - N/A   Partly Cloudy
5:53 AM 63.0 °F 48.9 °F 60% 29.89 in 10.0 mi WNW 5.8 mph - N/A   Partly Cloudy
6:53 AM 60.1 °F 50.0 °F 69% 29.91 in 10.0 mi SW 5.8 mph - N/A   Partly Cloudy
7:53 AM 64.9 °F 53.1 °F 65% 29.91 in 10.0 mi SW 5.8 mph - N/A   Clear
8:53 AM 72.0 °F 53.1 °F 51% 29.92 in 10.0 mi SW 8.1 mph - N/A   Clear
9:53 AM 78.1 °F 52.0 °F 40% 29.91 in 10.0 mi SW 10.4 mph - N/A   Clear
10:39 AM 82.4 °F 44.6 °F 26% 29.95 in 10.0 mi West 16.1 mph - N/A   Clear
10:53 AM 82.9 °F 46.0 °F 27% 29.90 in 10.0 mi West 17.3 mph - N/A   Clear
11:53 AM 84.9 °F 44.1 °F 24% 29.89 in 10.0 mi WSW 12.7 mph 23.0 mph N/A   Clear
12:53 PM 86.0 °F 39.9 °F 20% 29.88 in 10.0 mi WSW 16.1 mph 24.2 mph N/A   Clear
1:53 PM 87.1 °F 43.0 °F 21% 29.87 in 10.0 mi WSW 12.7 mph 26.5 mph N/A   Clear
2:53 PM 88.0 °F 39.9 °F 18% 29.86 in 10.0 mi West 11.5 mph - N/A   Clear
3:53 PM 89.1 °F 41.0 °F 19% 29.84 in 10.0 mi WSW 11.5 mph 25.3 mph N/A   Clear
4:53 PM 89.1 °F 37.9 °F 16% 29.82 in 10.0 mi West 13.8 mph 28.8 mph N/A   Clear
5:53 PM 89.1 °F 39.9 °F 18% 29.81 in 10.0 mi West 15.0 mph 21.9 mph N/A   Clear
6:53 PM 88.0 °F 39.0 °F 18% 29.80 in 10.0 mi West 11.5 mph - N/A   Clear
7:53 PM 81.0 °F 44.1 °F 27% 29.80 in 10.0 mi NW 8.1 mph - N/A   Clear
8:53 PM 71.1 °F 43.0 °F 36% 29.81 in 10.0 mi Calm Calm - N/A   Clear
9:53 PM 66.0 °F 44.1 °F 45% 29.83 in 10.0 mi South 10.4 mph - N/A   Clear
10:53 PM 66.0 °F 44.1 °F 45% 29.83 in 10.0 mi South 11.5 mph - N/A   Clear
11:53 PM 61.0 °F 44.1 °F 54% 29.84 in 10.0 mi WSW 5.8 mph - N/A   Clear